Weather History for KLAA - October, 2013

Change the Weather History Date:

Wednesday, October 9, 2013

  Actual Average Record
Temperature  
Mean Temperature 64 °F 56 °F  
Max Temperature 87 °F 73 °F 94 °F (1921)
Min Temperature 40 °F 38 °F 23 °F (1992)
Degree Days  
Heating Degree Days 1 10  
Month to date heating degree days 57 72  
Since 1 July heating degree days 79 155  
Cooling Degree Days 0 0  
Month to date cooling degree days 2 8  
Year to date cooling degree days 1568 1120  
Growing Degree Days 14 (Base 50)    
Moisture  
Dew Point 31 °F    
Average Humidity 37    
Maximum Humidity 62    
Minimum Humidity 11    
Precipitation  
Precipitation 0.00 in 0.02 in 0.41 in (1984)
Month to date precipitation 0.00 0.23  
Year to date precipitation 9.37 13.85  
Sea Level Pressure  
Sea Level Pressure 29.68 in    
Wind  
Wind Speed 10 mph (SSW)    
Max Wind Speed 28 mph    
Max Gust Speed 36 mph    
Visibility 10 miles    
Events      
T = Trace of Precipitation, MM = Missing Value Source: NWS Daily Summary

Daily Weather History Graph

Daily Weather History Graph

Search for Another Location

Airport or City:

Trip Planner

Search our weather history database for the weather conditions in past years. The results will help you decide how hot, cold, wet, or windy it might be!

Date:

Astronomy

Oct. 09, 2013 Rise Set
Actual Time 6:53 AM MDT 6:21 PM MDT
Civil Twilight 6:27 AM MDT 6:47 PM MDT
Nautical Twilight 5:57 AM MDT 7:18 PM MDT
Astronomical Twilight 5:26 AM MDT 7:48 PM MDT
Moon 11:47 AM MDT (10/9) 10:01 PM MDT (10/9)
Length of Visible Light 12h 19m
Length of Day
11h 27m
Waxing Crescent, 26% of the Moon is Illuminated
Oct 9
Waxing Crescent
Oct 11
First Quarter
Oct 18
Full
Oct 26
Last Quarter
Nov 3
New

Hourly Weather History & Observations

Time (MDT) Temp. Dew Point Humidity Pressure Visibility Wind Dir Wind Speed Gust Speed Precip Events Conditions
12:53 AM 66.0 °F 28.9 °F 25% 29.60 in 10.0 mi SSW 19.6 mph - N/A   Clear
1:53 AM 63.0 °F 28.9 °F 28% 29.61 in 10.0 mi SSW 13.8 mph - N/A   Clear
2:53 AM 59.0 °F 28.9 °F 32% 29.63 in 10.0 mi West 8.1 mph - N/A   Clear
3:53 AM 53.1 °F 28.0 °F 38% 29.65 in 10.0 mi Variable 3.5 mph - N/A   Clear
4:53 AM 53.1 °F 28.9 °F 40% 29.66 in 10.0 mi SW 10.4 mph - N/A   Clear
5:53 AM 52.0 °F 28.0 °F 40% 29.69 in 10.0 mi Calm Calm - N/A   Clear
6:53 AM 42.1 °F 30.0 °F 62% 29.75 in 10.0 mi Calm Calm - N/A   Clear
7:53 AM 51.1 °F 30.9 °F 46% 29.75 in 10.0 mi SW 4.6 mph - N/A   Clear
8:53 AM 60.1 °F 33.1 °F 36% 29.74 in 10.0 mi NNW 4.6 mph - N/A   Clear
9:53 AM 66.9 °F 30.9 °F 26% 29.73 in 10.0 mi NW 4.6 mph - N/A   Clear
10:53 AM 73.0 °F 33.1 °F 23% 29.72 in 10.0 mi North 6.9 mph - N/A   Clear
11:53 AM 75.9 °F 33.1 °F 21% 29.72 in 10.0 mi Calm Calm - N/A   Clear
12:53 PM 80.1 °F 30.9 °F 17% 29.68 in 10.0 mi NE 3.5 mph - N/A   Clear
1:53 PM 82.9 °F 30.9 °F 15% 29.65 in 10.0 mi NE 6.9 mph - N/A   Clear
2:53 PM 84.9 °F 32.0 °F 15% 29.63 in 10.0 mi North 10.4 mph 16.1 mph N/A   Clear
3:53 PM 86.0 °F 27.0 °F 12% 29.63 in 10.0 mi South 18.4 mph 28.8 mph N/A   Clear
4:53 PM 84.9 °F 27.0 °F 12% 29.64 in 10.0 mi South 20.7 mph 29.9 mph N/A   Clear
5:53 PM 81.0 °F 30.0 °F 16% 29.65 in 10.0 mi South 17.3 mph - N/A   Clear
6:53 PM 75.9 °F 32.0 °F 20% 29.70 in 10.0 mi South 15.0 mph 23.0 mph N/A   Clear
7:53 PM 72.0 °F 32.0 °F 23% 29.70 in 10.0 mi South 13.8 mph - N/A   Clear
8:53 PM 69.1 °F 30.9 °F 24% 29.68 in 10.0 mi South 12.7 mph - N/A   Clear
9:53 PM 63.0 °F 35.1 °F 35% 29.70 in 10.0 mi SE 16.1 mph - N/A   Clear
10:53 PM 66.0 °F 30.9 °F 27% 29.67 in 10.0 mi SSE 21.9 mph 26.5 mph N/A   Clear
11:53 PM 63.0 °F 32.0 °F 31% 29.66 in 10.0 mi South 17.3 mph - N/A   Clear